Showing default

GJZ 04, 62293

Orbit data source: Space-Track

GJZ 04, 62293 is a payload satellite owned by CASC (CN) in LEO that was launched on Thu, 12 Dec 2024 UTC via a CHANG ZHENG 2D/YZ-3 launch vehicle from the Jiuquan Satellite Launch Center, China (JSC). Payload-class satellites include a variety of spacecraft equipped with specific instruments for various scientific and technological missions. These include communications satellites like Starlink; space stations such as the ISS; scientific satellites like the Hubble; Earth observation satellites from companies like Planet Labs, Umbra, and HawkEye 360; GPS; miniature CubeSats for education and research; and military/defense satellites.

Loading next visibility...
Identifier
62293, 2024-238D
Orbit
LEO
Last TLE update
11 hours ago
Origin
Manufacturer
HITSAT
Mission
Operational Civil Communications
Bus & Motor
HARBFLAT, Unknown motor
Mass
~150 kg wet, ~150 kg dry
Launch date (UTC)
2024-12-12 (7 months ago)
Launch vehicle
CHANG ZHENG 2D/YZ-3
Launch site
Jiuquan Satellite Launch Center, China (JSC)
Object type
Payload
Rocket body
Debris
Shape & HBR
Box + 2 Pan, 3 m
Radar Cross Section
0.240 m², Large (>1 m²)

Expand to show TLE details & history

TLE from 11 hours ago
0 GJZ 04
1 62293U 24238D   25189.88086781 -.00000074  00000-0  47325-4 0  9999
2 62293  59.9113 230.1162 0022868  81.2853 279.0743 13.75142011 28692
Epoch: 2025-07-08T21:08Z
TLE epoch observation values (Epoch: 2025-07-08T21:08:26.978Z)
Latitude
-0.00009°
Longitude
-14.06576°
Altitude
980.036 km
Speed
7.364 km/s
True Right ascension
15h 20m 27s
True Declination
0° 00' 00"
Sunlit
Object was in daylight at epoch
Visualization orbit readout
Latitude
32.69175°
Longitude
6.30172°
Altitude
971.666 km
Speed
7.376 km/s
Apparent Right ascension
13h 17m 11s
Apparent Declination
-1° 27' 41"
Sunlit
Object is in daylight
Visualization observer readout
Local Sidereal Time
19:57:21
Azimuth
275.355° WNW
Elevation
-8.629°
Doppler factor
1
Orbital elements
Apogee altitude
997.264 km
Perigee altitude
963.609 km
Semi-major axis
7,358.574 km
Eccentricity
0.00229
Inclination
59.9113°
RAAN
230.1162°
Arg. of periapsis
81.2853°
True anomaly
Unknown
Mean anomaly
279.0743°
Eccentric anomaly
Unknown
Mean motion
3.43837 °/min
Orbital period
104.7 mins
BSTAR
0.000047325
Loading maneuver chart data...
Loading SW <> Apogee altitude chart data...
Loading historical data...
Loading historical data...
Loading historical data...
Loading historical data...
Loading historical data...
Loading historical data...
Loading historical data...
Other satellites on launch #238 in the year 2024 (2024-12-12 UTC)

GJZ 04 Visibility forecast

Observer location: undefined°, undefined°

Span
Click to sort rows by Start time (UTC) header in descending order
Start Az.
Max El. time (UTC)
Max El. Az.
Max El.
End time (UTC)
End Az.
6 mins2025-07-09 07:55:48.049Z315.012° NNW2025-07-09 07:58:48.049Z344.489° N13.911°2025-07-09 08:01:48.049Z13.733° NNE
4 mins2025-07-09 09:48:48.049Z357.555° N2025-07-09 09:49:48.049Z7.447° NNE12.561°2025-07-09 09:52:48.049Z36.328° NE
9 mins2025-07-09 11:36:48.049Z344.19° N2025-07-09 11:40:48.049Z35.268° NE26.983°2025-07-09 11:45:48.049Z93.735° ESE
11 mins2025-07-09 13:24:48.049Z313.089° NW2025-07-09 13:29:48.049Z236.092° WSW42.079°2025-07-09 13:35:48.049Z156.109° SSE
5 mins2025-07-10 02:56:48.049Z136.29° SSE2025-07-10 02:58:48.049Z115.815° SE15.05°2025-07-10 03:01:48.049Z84.852° E
11 mins2025-07-10 04:41:48.049Z217.305° SW2025-07-10 04:46:48.049Z209.988° SW44.976°2025-07-10 04:52:48.049Z39.396° NE
8 mins2025-07-10 06:32:48.049Z287.652° WNW2025-07-10 06:35:48.049Z322.795° NNW22.088°2025-07-10 06:40:48.049Z18.915° NNE
|